TimeHST,TemperatureF,Dew PointF,Humidity,Sea Level PressureIn,VisibilityMPH,Wind Direction,Wind SpeedMPH,Gust SpeedMPH,PrecipitationIn,Events,Conditions,WindDirDegrees,DateUTC
12:53 AM,75.0,69.1,82,29.94,10.0,SE,3.5,-,N/A,,Clear,130,2012-11-22 10:53:00
1:53 AM,75.0,68.0,79,29.94,10.0,Calm,Calm,-,N/A,,Clear,0,2012-11-22 11:53:00
2:53 AM,75.0,68.0,79,29.92,10.0,Calm,Calm,-,N/A,,Clear,0,2012-11-22 12:53:00
3:53 AM,75.0,68.0,79,29.91,10.0,ENE,3.5,-,N/A,,Clear,70,2012-11-22 13:53:00
4:53 AM,75.0,68.0,79,29.92,10.0,East,4.6,-,N/A,,Overcast,80,2012-11-22 14:53:00
5:53 AM,73.9,66.9,79,29.92,10.0,NE,3.5,-,N/A,,Scattered Clouds,50,2012-11-22 15:53:00
6:53 AM,73.9,66.9,79,29.94,10.0,East,3.5,-,N/A,,Scattered Clouds,80,2012-11-22 16:53:00
7:04 AM,73.4,66.2,78,29.94,10.0,Calm,Calm,-,N/A,,Mostly Cloudy,0,2012-11-22 17:04:00
7:18 AM,73.4,66.2,78,29.94,10.0,East,3.5,-,N/A,,Scattered Clouds,90,2012-11-22 17:18:00
7:53 AM,77.0,68.0,74,29.95,10.0,Calm,Calm,-,N/A,,Clear,0,2012-11-22 17:53:00
8:53 AM,78.1,70.0,76,29.97,10.0,SW,3.5,-,N/A,,Mostly Cloudy,220,2012-11-22 18:53:00
9:53 AM,80.1,69.1,69,29.98,10.0,WSW,6.9,-,N/A,,Clear,250,2012-11-22 19:53:00
10:53 AM,80.1,69.1,69,29.97,10.0,West,5.8,-,N/A,,Mostly Cloudy,280,2012-11-22 20:53:00
11:53 AM,81.0,70.0,69,29.93,10.0,West,6.9,-,N/A,,Clear,270,2012-11-22 21:53:00
12:53 PM,80.1,70.0,71,29.91,10.0,WNW,8.1,-,N/A,,Partly Cloudy,300,2012-11-22 22:53:00
1:53 PM,81.0,68.0,65,29.89,10.0,NNW,8.1,-,N/A,,Partly Cloudy,330,2012-11-22 23:53:00
2:53 PM,81.0,69.1,67,29.89,10.0,NW,9.2,-,N/A,,Partly Cloudy,320,2012-11-23 00:53:00
3:53 PM,80.1,69.1,69,29.87,10.0,North,12.7,-,N/A,,Scattered Clouds,360,2012-11-23 01:53:00
4:53 PM,78.1,71.1,79,29.87,10.0,North,13.8,-,0.00,Rain,Light Rain,350,2012-11-23 02:53:00
5:53 PM,77.0,70.0,79,29.90,10.0,North,13.8,-,0.01,Rain,Light Rain,350,2012-11-23 03:53:00
6:53 PM,75.9,71.1,85,29.93,10.0,North,13.8,-,0.01,,Partly Cloudy,350,2012-11-23 04:53:00
7:53 PM,75.9,71.1,85,29.94,10.0,NNE,11.5,-,N/A,,Clear,20,2012-11-23 05:53:00
8:53 PM,75.9,69.1,79,29.95,10.0,North,13.8,-,0.00,Rain,Light Rain,360,2012-11-23 06:53:00
9:53 PM,75.0,69.1,82,29.97,10.0,NE,6.9,-,0.00,Rain,Light Rain,40,2012-11-23 07:53:00
10:53 PM,75.0,66.9,76,29.97,10.0,NNE,9.2,-,0.00,,Scattered Clouds,30,2012-11-23 08:53:00
11:53 PM,73.9,66.9,79,29.96,10.0,NNE,8.1,-,N/A,,Clear,30,2012-11-23 09:53:00